[[{"header":{"parameterUnit":"m.s-1","parameterCategory":2,"la1":30.2991,"la2":30.254,"lo1":-89.0895,"lo2":-89.0444,"dy":0.0017,"dx":0.0017,"nx":28,"ny":28,"refTime":"2025-04-19T21:00:00:Z","depth":"0","parameterNumber":2,"parameterNumberName":"U-component_of_CURRENTS"},"data":[0,0,0,0,0,0,0,0,0,0,0,0,0,0,0,0,0,0,0,0,0,0,0,0,0,0,0,0,0,0,0,0,0,0,0,0,0,0,0,0,0,0,0,0,0,0,0,0,0,0,0,0,0,0,0,0,0,0,0.1779,0.1779,0,0.1792,0.1791,0.1791,0.1759,0.1758,0.1758,0.1757,0.1761,0.1762,0.1763,0,0,0,0,0,0,0,0,0,0,0,0,0,0.1743,0.1744,0.1779,0.1779,0.178,0.1792,0.1791,0.1791,0.1759,0.1758,0.1757,0.1757,0.1761,0.1762,0.1763,0,0,0,0,0,0,0,0,0,0,0,0,0,0.1754,0.1744,0.1779,0.1768,0.1767,0.1792,0.1791,0.1791,0.1759,0.1758,0.1757,0.1756,0.1761,0.1762,0.1763,0.179,0,0,0.1766,0.1767,0,0,0,0,0,0,0,0,0.1753,0.1755,0.1769,0.1769,0.1768,0.1776,0.1781,0.1792,0.1759,0.1758,0.1757,0.1756,0.1769,0.1769,0.1768,0.179,0.179,0.1766,0.1767,0.1768,0.1768,0,0,0,0,0,0,0,0.1753,0.1754,0.178,0.177,0.1769,0.1769,0.1768,0.1782,0.1766,0.1758,0.1757,0.1765,0.1768,0.1767,0.1768,0.179,0.1766,0.1767,0.1768,0.1768,0.1852,0.1854,0,0,0,0,0,0,0.1759,0.1754,0.178,0.1781,0.1762,0.177,0.177,0.1771,0.1766,0.1765,0.1766,0.1763,0.1766,0.1767,0.1768,0.1815,0.1768,0.1769,0.1769,0.1851,0.1853,0.1855,0,0,0,0,0,0,0.1758,0.1761,0.1779,0.1771,0.1773,0.1772,0.1774,0.1772,0.1774,0.1772,0.177,0.1769,0.1765,0.1767,0.1792,0.1814,0.1769,0.177,0.1849,0.1852,0.1854,0.1899,0,0,0,0,0,0,0.1757,0.176,0.1768,0.1771,0.1774,0.1807,0.1775,0.1773,0.1782,0.1779,0.1775,0.1774,0.1765,0.179,0.1793,0.1815,0.1771,0.1847,0.185,0.1853,0.1895,0.1902,0.1908,0,0,0,0,0,0.1755,0.1776,0.1768,0.1771,0.1783,0.1809,0.1811,0.1804,0.1783,0.1798,0.1792,0.1774,0.181,0.1793,0.1795,0.1818,0.1846,0.1849,0.1853,0.1892,0.1901,0.1908,0,0,0,0,0,0,0.1763,0.1775,0.1766,0.1787,0.1802,0.1805,0.1822,0.1811,0.1817,0.1811,0.1796,0.1796,0.1827,0.1822,0.1802,0.1853,0.1825,0.1829,0.1854,0.1862,0.1869,0.1873,0.1772,0,0,0,0,0,0.1769,0.1786,0.1796,0.1813,0.1824,0.1821,0.1831,0.1826,0.1831,0.1831,0.1829,0.1831,0.1845,0.1852,0.1864,0.1893,0.1903,0.1911,0.1917,0.1923,0.193,0.1963,0.1973,0.1866,0.1866,0.1866,0,0,0.1775,0.1787,0.1793,0.1817,0.1824,0.1845,0.1824,0.1846,0.1859,0.1834,0.1854,0.1858,0.186,0.1891,0.1904,0.1887,0.1963,0.1927,0.1931,0.1936,0.1968,0.1978,0.1987,0.1868,0.1868,0.1868,0,0,0.18,0.1808,0.1828,0.1845,0.1868,0.1871,0.188,0.189,0.1892,0.1916,0.1902,0.1921,0.1938,0.1946,0.195,0.2004,0.1999,0.2008,0.2041,0.2074,0.2083,0.2091,0.2133,0.2144,0.2008,0.2008,0.2008,0,0.1805,0.1826,0.1841,0.1866,0.188,0.1884,0.1904,0.1919,0.1934,0.1946,0.193,0.1966,0.1964,0.2003,0.2018,0.2018,0.2039,0.2007,0.2082,0.209,0.2097,0.2138,0.2149,0.201,0.201,0.201,0.2009,0,0.1841,0.1858,0.1877,0.1903,0.1926,0.1949,0.1969,0.199,0.1989,0.2,0.2039,0.2042,0.2061,0.2066,0.2055,0.211,0.211,0.2088,0.2059,0.211,0.215,0.2162,0.2014,0.2013,0.2012,0.2012,0,0,0.1839,0.1889,0.1893,0.1905,0.1943,0.1962,0.2001,0.2035,0.2058,0.208,0.2111,0.2138,0.214,0.2146,0.2142,0.2165,0.2234,0.2149,0.215,0.2186,0.2321,0.2284,0.2292,0.2223,0.2225,0.2227,0.2334,0,0.1854,0.1903,0.1923,0.1959,0.1981,0.2003,0.2037,0.2073,0.2097,0.2135,0.2155,0.2184,0.2171,0.2178,0.2208,0.2225,0.2264,0.2208,0.227,0.2272,0.2228,0.2304,0.2246,0.2333,0.2345,0.2347,0.2348,0,0.1868,0.1902,0.1938,0.198,0.1991,0.2012,0.2061,0.2096,0.2158,0.2176,0.2219,0.2237,0.229,0.2257,0.2338,0.2304,0.2324,0.2334,0.2338,0.2292,0.2255,0.2282,0.2353,0.2325,0.2366,0.2364,0.2363,0,0.1851,0.1904,0.1929,0.1945,0.2,0.2015,0.2045,0.2105,0.2139,0.2205,0.2241,0.2299,0.2334,0.2371,0.2404,0.2378,0.2485,0.2447,0.2442,0.244,0.2398,0.2388,0.2442,0.2512,0.2512,0.2511,0.2511,0,0.185,0.1868,0.192,0.1934,0.1959,0.2007,0.2042,0.208,0.2149,0.2188,0.2262,0.23,0.2364,0.2429,0.2443,0.249,0.2526,0.2471,0.247,0.2413,0.2404,0.238,0.2358,0.2515,0.2514,0.2514,0.2513,0,0.1814,0.1854,0.1876,0.1932,0.1945,0.1961,0.2023,0.2053,0.2136,0.2191,0.2216,0.2326,0.2404,0.2475,0.254,0.2543,0.2517,0.2582,0.2516,0.2504,0.2439,0.2421,0.236,0.2272,0.2595,0.2595,0.2595,0,0.1796,0.1809,0.1854,0.1861,0.1877,0.1914,0.1936,0.2018,0.2052,0.2187,0.2205,0.2328,0.2385,0.2509,0.2536,0.2595,0.2513,0.2562,0.2488,0.245,0.243,0.2312,0.2232,0.2467,0.2466,0.2465,0.2464,0,0.175,0.1763,0.178,0.1802,0.1815,0.1837,0.1878,0.1905,0.2002,0.2073,0.2151,0.2221,0.237,0.2413,0.2516,0.2527,0.2446,0.254,0.2524,0.236,0.2213,0.2122,0.239,0.2455,0.2456,0.2457,0.2457,0.2458,0.1692,0.1692,0.1713,0.1724,0.1738,0.174,0.1737,0.1794,0.1841,0.1927,0.2036,0.2129,0.2296,0.243,0.243,0.2437,0.2373,0.2391,0.2386,0.2279,0.2143,0.2391,0.2427,0.2428,0.2429,0.2429,0.243,0,0.1625,0.1635,0.1639,0.164,0.162,0.1658,0.1678,0.1669,0.1687,0.1809,0.1885,0.2056,0.2169,0.2286,0.2384,0.2322,0.2188,0.2268,0.2113,0.2048,0.2317,0.2262,0.2234,0.2234,0.2234,0.2234,0.2234,0.2234,0.1585,0.157,0.158,0.152,0.1518,0.1469,0.1462,0.1464,0.1528,0.1615,0.1716,0.1836,0.21,0.233,0.2344,0.2274,0.2083,0.2003,0.1956,0.2201,0.2212,0.2222,0.2166,0.2118,0.2118,0.1597,0.1594,0.1591]},{"header":{"parameterUnit":"m.s-1","parameterCategory":2,"la1":30.2991,"la2":30.254,"lo1":-89.0895,"lo2":-89.0444,"dy":0.0017,"dx":0.0017,"nx":28,"ny":28,"refTime":"2025-04-19T21:00:00:Z","depth":"0","parameterNumber":3,"parameterNumberName":"V-component_of_CURRENTS"},"data":[0,0,0,0,0,0,0,0,0,0,0,0,0,0,0,0,0,0,0,0,0,0,0,0,0,0,0,0,0,0,0,0,0,0,0,0,0,0,0,0,0,0,0,0,0,0,0,0,0,0,0,0,0,0,0,0,0,0,-0.005,-0.005,0,-0.0099,-0.01,-0.01,-0.013,-0.013,-0.013,-0.013,-0.0209,-0.0211,-0.0213,0,0,0,0,0,0,0,0,0,0,0,0,0,-0.0022,-0.0022,-0.005,-0.005,-0.0051,-0.0099,-0.01,-0.01,-0.013,-0.013,-0.013,-0.013,-0.0208,-0.0211,-0.0213,0,0,0,0,0,0,0,0,0,0,0,0,0,-0.005,-0.0022,-0.0049,-0.007,-0.0073,-0.0099,-0.01,-0.0101,-0.013,-0.013,-0.013,-0.013,-0.0207,-0.021,-0.0213,-0.0231,0,0,-0.0223,-0.0224,0,0,0,0,0,0,0,0,-0.0048,-0.0051,-0.0067,-0.0069,-0.0072,-0.0107,-0.0119,-0.0145,-0.013,-0.0109,-0.013,-0.013,-0.0177,-0.0183,-0.0193,-0.0235,-0.0238,-0.0223,-0.0225,-0.0226,-0.0227,0,0,0,0,0,0,0,-0.0046,-0.0049,-0.007,-0.0067,-0.007,-0.0091,-0.0095,-0.0124,-0.0143,-0.0111,-0.0113,-0.0117,-0.0179,-0.0189,-0.0195,-0.0239,-0.0223,-0.0226,-0.0228,-0.0229,-0.0314,-0.0315,0,0,0,0,0,0,-0.0036,-0.0047,-0.0069,-0.0071,-0.0059,-0.0091,-0.0096,-0.0097,-0.0142,-0.0149,-0.0117,-0.0118,-0.0184,-0.0191,-0.0198,-0.0228,-0.0226,-0.0229,-0.0231,-0.0314,-0.0314,-0.0315,0,0,0,0,0,0,-0.0035,-0.0037,-0.0067,-0.006,-0.0065,-0.0091,-0.0093,-0.0098,-0.0108,-0.0146,-0.0154,-0.0121,-0.0185,-0.0193,-0.0221,-0.0231,-0.023,-0.0233,-0.0313,-0.0314,-0.0315,-0.0283,0,0,0,0,0,0,-0.0034,-0.0036,-0.0035,-0.0059,-0.0065,-0.0079,-0.0093,-0.0098,-0.011,-0.0112,-0.0153,-0.016,-0.0185,-0.0217,-0.0224,-0.0235,-0.0236,-0.0313,-0.0314,-0.0314,-0.0284,-0.0283,-0.0282,0,0,0,0,0,-0.0033,-0.0029,-0.0035,-0.0038,-0.0062,-0.0079,-0.0084,-0.0104,-0.0109,-0.0113,-0.014,-0.0159,-0.0228,-0.0219,-0.0228,-0.024,-0.0312,-0.0313,-0.0314,-0.0284,-0.0283,-0.0282,0,0,0,0,0,0,-0.0017,-0.0032,-0.0039,-0.0041,-0.0057,-0.0083,-0.0088,-0.0101,-0.0125,-0.0126,-0.0162,-0.0171,-0.0201,-0.0224,-0.0214,-0.0268,-0.0274,-0.0277,-0.0248,-0.0248,-0.0247,-0.0234,-0.0238,0,0,0,0,0,-0.0012,-0.0013,-0.0033,-0.0034,-0.004,-0.0063,-0.0073,-0.0085,-0.0108,-0.0118,-0.0147,-0.018,-0.0213,-0.0231,-0.0261,-0.0289,-0.0298,-0.0303,-0.0302,-0.0301,-0.0298,-0.0324,-0.0324,-0.0318,-0.0318,-0.0318,0,0,-0.0006,-0.0014,-0.0016,-0.003,-0.0044,-0.0051,-0.0069,-0.0079,-0.0087,-0.0123,-0.0144,-0.0176,-0.0218,-0.0249,-0.0265,-0.0269,-0.0306,-0.0303,-0.0301,-0.0298,-0.0325,-0.0325,-0.0326,-0.0319,-0.0318,-0.0318,0,0,0.0007,-0.0001,0.0002,-0.0009,-0.0024,-0.004,-0.004,-0.0065,-0.0078,-0.0101,-0.0132,-0.0165,-0.0211,-0.0245,-0.0268,-0.0281,-0.0298,-0.0294,-0.0282,-0.0307,-0.0307,-0.0308,-0.0304,-0.0305,-0.0296,-0.0296,-0.0296,0,0.0015,0.002,0.0,0.0,-0.0003,-0.0032,-0.0028,-0.005,-0.0081,-0.0091,-0.0102,-0.0173,-0.021,-0.0251,-0.026,-0.0279,-0.0285,-0.0281,-0.0304,-0.0305,-0.0306,-0.0303,-0.0303,-0.0294,-0.0295,-0.0295,-0.0295,0,0.0031,0.0034,0.0035,0.0028,0.0018,0.0018,-0.001,-0.0023,-0.0042,-0.0066,-0.0104,-0.0154,-0.0192,-0.0219,-0.0246,-0.0278,-0.0275,-0.0296,-0.0303,-0.0305,-0.0301,-0.0302,-0.0292,-0.0293,-0.0293,-0.0294,0,0,0.0059,0.0049,0.0052,0.0058,0.0037,0.0034,0.0018,-0.0001,0.0001,-0.0051,-0.0053,-0.0134,-0.0157,-0.0185,-0.0227,-0.026,-0.0275,-0.0281,-0.0283,-0.0267,-0.0307,-0.0297,-0.0298,-0.03,-0.03,-0.0301,-0.0294,0,0.0082,0.0096,0.0081,0.0094,0.0102,0.0074,0.007,0.0045,0.002,0.001,-0.0058,-0.0081,-0.0146,-0.0156,-0.0203,-0.0251,-0.028,-0.0273,-0.0315,-0.0316,-0.03,-0.03,-0.0283,-0.0276,-0.0296,-0.0296,-0.0296,0,0.0109,0.0117,0.0138,0.0144,0.0145,0.0144,0.0144,0.0136,0.0102,0.0083,0.0035,-0.0006,-0.0066,-0.0112,-0.0205,-0.0196,-0.0249,-0.0293,-0.0294,-0.0297,-0.031,-0.0282,-0.0278,-0.0391,-0.0298,-0.0298,-0.0298,0,0.0154,0.0159,0.0182,0.0181,0.0179,0.0184,0.0182,0.016,0.0171,0.0133,0.0148,0.0057,0.0045,-0.0056,-0.0152,-0.0176,-0.0235,-0.0276,-0.0319,-0.0317,-0.0317,-0.0315,-0.0422,-0.0341,-0.0341,-0.0341,-0.0341,0,0.0192,0.0212,0.0206,0.022,0.0255,0.0234,0.0269,0.025,0.0252,0.0282,0.0195,0.0209,0.0058,0.0005,-0.011,-0.0204,-0.0203,-0.031,-0.032,-0.0304,-0.0301,-0.0412,-0.0494,-0.0341,-0.0341,-0.0341,-0.0341,0,0.024,0.0237,0.0265,0.027,0.0279,0.0304,0.0334,0.036,0.0352,0.0397,0.0394,0.0335,0.0265,0.0127,-0.0009,-0.0122,-0.03,-0.0266,-0.0222,-0.0228,-0.0389,-0.0469,-0.0595,-0.0667,-0.0315,-0.0315,-0.0315,0,0.0268,0.0287,0.0309,0.0336,0.0341,0.0377,0.0411,0.0408,0.0443,0.0479,0.0512,0.0468,0.0448,0.0264,0.0055,-0.0124,-0.0271,-0.0232,-0.0295,-0.0391,-0.0488,-0.0555,-0.0612,-0.0273,-0.0273,-0.0273,-0.0272,0,0.0321,0.0326,0.0348,0.0405,0.0441,0.0484,0.053,0.0577,0.0596,0.0646,0.07,0.0696,0.0532,0.0365,0.0122,-0.0028,-0.0327,-0.023,-0.0353,-0.0484,-0.0541,-0.0615,-0.0266,-0.0269,-0.0269,-0.0269,-0.0269,-0.027,0.0363,0.039,0.0422,0.0475,0.0518,0.058,0.0636,0.0697,0.0778,0.0872,0.0852,0.0888,0.0641,0.031,0.0095,-0.0268,-0.0308,-0.0386,-0.0475,-0.0533,-0.0614,-0.0241,-0.0246,-0.0247,-0.0247,-0.0247,-0.0247,0,0.042,0.0446,0.0495,0.055,0.0602,0.0615,0.071,0.0777,0.089,0.0988,0.1046,0.0967,0.0653,0.0309,-0.0168,-0.0445,-0.059,-0.0611,-0.0716,-0.0766,-0.0443,-0.0452,-0.0474,-0.0474,-0.0474,-0.0474,-0.0474,-0.0473,0.0454,0.0508,0.0525,0.0611,0.0652,0.074,0.0801,0.0904,0.0996,0.1129,0.1181,0.1184,0.0957,0.0084,-0.052,-0.0685,-0.0928,-0.097,-0.1096,-0.0883,-0.0869,-0.0856,-0.0883,-0.0995,-0.0996,-0.1379,-0.1382,-0.1385]}],[{"header":{"parameterUnit":"m.s-1","parameterCategory":2,"la1":30.2991,"la2":30.254,"lo1":-89.0895,"lo2":-89.0444,"dy":0.0017,"dx":0.0017,"nx":28,"ny":28,"refTime":"2025-04-19T21:00:00:Z","depth":"2","parameterNumber":2,"parameterNumberName":"U-component_of_CURRENTS"},"data":[0,0,0,0,0,0,0,0,0,0,0,0,0,0,0,0,0,0,0,0,0,0,0,0,0,0,0,0,0,0,0,0,0,0,0,0,0,0,0,0,0,0,0,0,0,0,0,0,0,0,0,0,0,0,0,0,0,0,0.1812,0.1812,0,0.1826,0.1826,0.1826,0.1797,0.1796,0.1795,0.1795,0.1807,0.1808,0.1809,0,0,0,0,0,0,0,0,0,0,0,0,0,0.1777,0.1778,0.1812,0.1812,0.1813,0.1826,0.1826,0.1826,0.1797,0.1796,0.1795,0.1795,0.1807,0.1808,0.1809,0,0,0,0,0,0,0,0,0,0,0,0,0,0.1789,0.1778,0.1812,0.1802,0.1802,0.1826,0.1826,0.1826,0.1797,0.1796,0.1795,0.1794,0.1806,0.1808,0.1809,0.1837,0,0,0.1813,0.1814,0,0,0,0,0,0,0,0,0.1788,0.179,0.1803,0.1803,0.1803,0.1811,0.1818,0.183,0.1797,0.1796,0.1795,0.1794,0.1811,0.1812,0.1812,0.1838,0.1838,0.1813,0.1814,0.1815,0.1815,0,0,0,0,0,0,0,0.1788,0.1789,0.1814,0.1804,0.1804,0.1803,0.1803,0.182,0.1806,0.1796,0.1794,0.1801,0.181,0.1811,0.1812,0.1839,0.1813,0.1815,0.1815,0.1816,0.1913,0.1914,0,0,0,0,0,0,0.1792,0.1789,0.1814,0.1815,0.1796,0.1805,0.1805,0.1807,0.1806,0.1806,0.1802,0.18,0.1809,0.1811,0.1813,0.1864,0.1815,0.1816,0.1817,0.1911,0.1913,0.1915,0,0,0,0,0,0,0.1792,0.1794,0.1813,0.1805,0.1807,0.1807,0.1809,0.1808,0.1812,0.1811,0.181,0.1808,0.1808,0.1811,0.1841,0.1864,0.1817,0.1818,0.1909,0.1911,0.1914,0.1956,0,0,0,0,0,0,0.179,0.1794,0.1802,0.1805,0.1808,0.1843,0.1811,0.1809,0.1819,0.1816,0.1817,0.1816,0.1808,0.1839,0.1843,0.1865,0.1819,0.1907,0.191,0.1913,0.1953,0.196,0.1966,0,0,0,0,0,0.1789,0.1812,0.1802,0.1806,0.1818,0.1845,0.1847,0.184,0.182,0.1836,0.1835,0.1816,0.1862,0.1842,0.1846,0.1869,0.1905,0.1909,0.1913,0.195,0.1958,0.1966,0,0,0,0,0,0,0.18,0.1811,0.1801,0.1824,0.1838,0.1841,0.1858,0.1848,0.1858,0.1853,0.184,0.1842,0.1877,0.1874,0.1852,0.1908,0.188,0.1885,0.1907,0.1916,0.1922,0.1927,0.182,0,0,0,0,0,0.1807,0.1825,0.1833,0.1852,0.1861,0.1858,0.1868,0.1864,0.1872,0.1873,0.1874,0.188,0.1897,0.1906,0.1921,0.1954,0.1964,0.1972,0.1979,0.1985,0.1993,0.2027,0.2037,0.1928,0.1928,0.1927,0,0,0.1813,0.1825,0.1832,0.1856,0.1861,0.1882,0.1861,0.1883,0.1899,0.1876,0.1902,0.1907,0.1913,0.1948,0.1963,0.1946,0.2025,0.1989,0.1994,0.1999,0.2032,0.2042,0.2052,0.193,0.193,0.1929,0,0,0.1839,0.1848,0.1869,0.1886,0.1907,0.191,0.1919,0.193,0.1935,0.1963,0.1951,0.1972,0.1994,0.2005,0.2011,0.2069,0.2062,0.2073,0.2108,0.2141,0.215,0.2158,0.2198,0.2209,0.2074,0.2074,0.2074,0,0.1845,0.1867,0.1881,0.1907,0.1921,0.1924,0.1945,0.1962,0.198,0.1995,0.1979,0.2021,0.2022,0.2065,0.2081,0.2083,0.2103,0.2072,0.2149,0.2157,0.2164,0.2203,0.2214,0.2076,0.2076,0.2076,0.2075,0,0.1881,0.19,0.1919,0.1945,0.1969,0.1992,0.2013,0.2037,0.2038,0.205,0.2095,0.21,0.2124,0.2129,0.212,0.2177,0.2176,0.2154,0.2124,0.2178,0.2215,0.2227,0.208,0.2079,0.2078,0.2078,0,0,0.188,0.193,0.1936,0.1947,0.1987,0.2006,0.2049,0.2087,0.2112,0.2137,0.217,0.2202,0.2204,0.2213,0.2209,0.2234,0.2301,0.2218,0.2218,0.225,0.2387,0.2332,0.2339,0.2291,0.2293,0.2295,0.2397,0,0.1895,0.1945,0.1967,0.2005,0.2026,0.205,0.2088,0.2127,0.2155,0.2195,0.2217,0.2248,0.2238,0.2244,0.2276,0.2292,0.2332,0.2276,0.2337,0.2339,0.2277,0.235,0.2153,0.2222,0.2408,0.241,0.2411,0,0.191,0.1944,0.1982,0.2027,0.2038,0.206,0.2114,0.2152,0.2218,0.2238,0.2284,0.2301,0.2356,0.2323,0.2407,0.2373,0.2392,0.2401,0.2405,0.2345,0.2305,0.2197,0.2236,0.243,0.2428,0.2427,0.2426,0,0.1892,0.1948,0.1975,0.1991,0.2048,0.2066,0.2097,0.2162,0.2198,0.2266,0.2301,0.2363,0.2396,0.2436,0.2465,0.2444,0.2544,0.2514,0.2491,0.2488,0.2328,0.2306,0.2579,0.2578,0.2578,0.2578,0.2578,0,0.1894,0.1913,0.1965,0.1981,0.2007,0.2056,0.2094,0.2135,0.2207,0.2245,0.2321,0.2357,0.2426,0.2486,0.2501,0.2539,0.2582,0.252,0.2516,0.2339,0.2318,0.2494,0.2482,0.2582,0.2581,0.258,0.258,0,0.186,0.19,0.1923,0.1979,0.1993,0.201,0.2073,0.2106,0.219,0.2244,0.2267,0.2378,0.2449,0.2519,0.2583,0.2584,0.2614,0.2612,0.2405,0.2375,0.2532,0.2522,0.2615,0.2614,0.2614,0.2613,0.2612,0,0.1842,0.1856,0.19,0.1908,0.1925,0.1962,0.1985,0.207,0.2104,0.2234,0.225,0.2365,0.2414,0.2525,0.253,0.2578,0.2609,0.2419,0.2337,0.2552,0.2539,0.253,0.2522,0.2152,0.2148,0.2144,0.2142,0,0.1798,0.181,0.1828,0.1849,0.1863,0.1884,0.1925,0.1952,0.2048,0.2115,0.2185,0.2246,0.2362,0.2321,0.24,0.2387,0.2394,0.2349,0.2636,0.2167,0.2121,0.2106,0.2112,0.211,0.2113,0.2116,0.2117,0.2119,0.174,0.174,0.1761,0.1772,0.1786,0.1787,0.1784,0.1838,0.1881,0.1947,0.2045,0.2081,0.2144,0.216,0.2116,0.209,0.2257,0.2161,0.2169,0.2182,0.2103,0.2058,0.2022,0.2024,0.2026,0.2028,0.203,0,0.1671,0.1682,0.1687,0.1687,0.1668,0.1706,0.1725,0.1715,0.1726,0.1798,0.1848,0.1746,0.1752,0.1806,0.1736,0.177,0.1726,0.1686,0.1606,0.1641,0.1671,0.1562,0.1339,0.1337,0.1334,0.1332,0,0,0.163,0.1615,0.1624,0.1566,0.1565,0.1524,0.1516,0.152,0.1553,0.1533,0.1531,0.1667,0.1764,0.1521,0.1512,0.141,0.1502,0.135,0.1912,0.1853,0.1879,0.1963,0.1837,0,0,0,0,0]},{"header":{"parameterUnit":"m.s-1","parameterCategory":2,"la1":30.2991,"la2":30.254,"lo1":-89.0895,"lo2":-89.0444,"dy":0.0017,"dx":0.0017,"nx":28,"ny":28,"refTime":"2025-04-19T21:00:00:Z","depth":"2","parameterNumber":3,"parameterNumberName":"V-component_of_CURRENTS"},"data":[0,0,0,0,0,0,0,0,0,0,0,0,0,0,0,0,0,0,0,0,0,0,0,0,0,0,0,0,0,0,0,0,0,0,0,0,0,0,0,0,0,0,0,0,0,0,0,0,0,0,0,0,0,0,0,0,0,0,-0.0092,-0.0092,0,-0.0139,-0.014,-0.014,-0.0169,-0.0169,-0.0169,-0.0169,-0.0246,-0.0248,-0.025,0,0,0,0,0,0,0,0,0,0,0,0,0,-0.0067,-0.0067,-0.0091,-0.0092,-0.0093,-0.0139,-0.014,-0.014,-0.0169,-0.0169,-0.0169,-0.0169,-0.0246,-0.0248,-0.025,0,0,0,0,0,0,0,0,0,0,0,0,0,-0.0093,-0.0067,-0.0091,-0.0112,-0.0114,-0.0139,-0.014,-0.0141,-0.0169,-0.0169,-0.0169,-0.0169,-0.0245,-0.0248,-0.0251,-0.0267,0,0,-0.026,-0.0261,0,0,0,0,0,0,0,0,-0.0092,-0.0094,-0.0108,-0.011,-0.0113,-0.0147,-0.0159,-0.0184,-0.0169,-0.0149,-0.0169,-0.0169,-0.0215,-0.0221,-0.023,-0.0271,-0.0274,-0.026,-0.0262,-0.0263,-0.0264,0,0,0,0,0,0,0,-0.009,-0.0093,-0.0111,-0.0109,-0.0112,-0.0133,-0.0136,-0.0164,-0.0182,-0.0151,-0.0153,-0.0157,-0.0217,-0.0227,-0.0232,-0.0276,-0.026,-0.0263,-0.0265,-0.0266,-0.0348,-0.0349,0,0,0,0,0,0,-0.008,-0.0091,-0.011,-0.0113,-0.0101,-0.0133,-0.0137,-0.0137,-0.0182,-0.0188,-0.0156,-0.0158,-0.0222,-0.0229,-0.0235,-0.0262,-0.0263,-0.0266,-0.0268,-0.0348,-0.0348,-0.0349,0,0,0,0,0,0,-0.0079,-0.0081,-0.0108,-0.0102,-0.0107,-0.0133,-0.0133,-0.0138,-0.0147,-0.0185,-0.0192,-0.016,-0.0223,-0.0231,-0.0258,-0.0265,-0.0267,-0.027,-0.0347,-0.0348,-0.0349,-0.0313,0,0,0,0,0,0,-0.0078,-0.008,-0.0079,-0.0101,-0.0107,-0.0118,-0.0133,-0.0139,-0.0149,-0.0151,-0.0191,-0.0198,-0.0223,-0.0253,-0.0261,-0.0269,-0.0272,-0.0347,-0.0348,-0.0348,-0.0314,-0.0312,-0.0311,0,0,0,0,0,-0.0077,-0.0072,-0.0078,-0.0081,-0.0103,-0.0118,-0.0123,-0.0143,-0.0149,-0.0152,-0.0178,-0.0197,-0.0263,-0.0255,-0.0264,-0.0274,-0.0347,-0.0347,-0.0348,-0.0314,-0.0313,-0.0311,0,0,0,0,0,0,-0.006,-0.0075,-0.0083,-0.0082,-0.0097,-0.0122,-0.0126,-0.0139,-0.0162,-0.0164,-0.0199,-0.0209,-0.0236,-0.026,-0.025,-0.0301,-0.031,-0.0312,-0.0281,-0.028,-0.0278,-0.0267,-0.0275,0,0,0,0,0,-0.0055,-0.0055,-0.0074,-0.0073,-0.0079,-0.0102,-0.0111,-0.0123,-0.0145,-0.0155,-0.0183,-0.0216,-0.0248,-0.0265,-0.0295,-0.032,-0.0332,-0.0334,-0.0333,-0.0332,-0.0329,-0.0355,-0.0355,-0.0352,-0.0352,-0.0352,0,0,-0.0048,-0.0056,-0.0057,-0.007,-0.0083,-0.0088,-0.0108,-0.0116,-0.0123,-0.016,-0.0179,-0.0211,-0.0253,-0.0282,-0.0297,-0.0302,-0.0336,-0.0333,-0.0331,-0.0329,-0.0356,-0.0356,-0.0356,-0.0352,-0.0352,-0.0352,0,0,-0.0032,-0.0041,-0.0035,-0.0046,-0.0061,-0.0076,-0.0075,-0.0099,-0.0113,-0.0133,-0.0165,-0.0197,-0.0242,-0.0275,-0.0298,-0.0308,-0.0327,-0.0322,-0.0308,-0.0333,-0.0333,-0.0333,-0.033,-0.033,-0.0323,-0.0323,-0.0323,0,-0.0023,-0.0017,-0.0037,-0.0035,-0.0038,-0.0067,-0.0061,-0.0082,-0.0112,-0.0123,-0.0134,-0.0203,-0.024,-0.0279,-0.0287,-0.0305,-0.0312,-0.0308,-0.0329,-0.033,-0.0331,-0.0328,-0.0329,-0.0321,-0.0321,-0.0321,-0.0321,0,-0.0004,-0.0,0.0003,-0.0003,-0.0012,-0.0011,-0.0038,-0.005,-0.007,-0.0094,-0.0131,-0.018,-0.0218,-0.0243,-0.0271,-0.0302,-0.03,-0.0321,-0.0328,-0.0329,-0.0326,-0.0327,-0.0319,-0.0319,-0.032,-0.032,0,0,0.0026,0.0019,0.0021,0.0027,0.0008,0.0006,-0.0007,-0.0027,-0.0025,-0.0075,-0.0076,-0.0156,-0.018,-0.0208,-0.0249,-0.0282,-0.0295,-0.0304,-0.0306,-0.0291,-0.0328,-0.0321,-0.0322,-0.032,-0.032,-0.0321,-0.0315,0,0.0051,0.0069,0.0054,0.0069,0.0078,0.0049,0.0047,0.0022,-0.0003,-0.0013,-0.008,-0.0102,-0.0168,-0.0177,-0.0224,-0.0272,-0.0301,-0.0293,-0.0338,-0.0339,-0.0326,-0.0325,-0.0317,-0.0312,-0.0317,-0.0317,-0.0317,0,0.008,0.009,0.0112,0.0119,0.0121,0.0122,0.0121,0.0114,0.008,0.006,0.0014,-0.0027,-0.0086,-0.0132,-0.0226,-0.0216,-0.0271,-0.0314,-0.0315,-0.0324,-0.0336,-0.0317,-0.0314,-0.032,-0.032,-0.032,-0.032,0,0.0124,0.0133,0.0156,0.0156,0.0156,0.0161,0.016,0.0137,0.0148,0.0111,0.0125,0.0036,0.0023,-0.0076,-0.0175,-0.0198,-0.0258,-0.0298,-0.0343,-0.0342,-0.0351,-0.035,-0.0362,-0.0362,-0.0362,-0.0362,-0.0362,0,0.0163,0.0183,0.0179,0.0194,0.0229,0.021,0.0244,0.0226,0.0228,0.0256,0.0172,0.0184,0.0036,-0.0018,-0.0133,-0.0229,-0.0227,-0.0335,-0.0345,-0.0337,-0.0335,-0.0363,-0.0363,-0.0362,-0.0362,-0.0362,-0.0362,0,0.021,0.0208,0.0237,0.0244,0.0253,0.0277,0.0308,0.0334,0.0326,0.0368,0.0365,0.0306,0.0232,0.0097,-0.0039,-0.0149,-0.0258,-0.0294,-0.0259,-0.0267,-0.0335,-0.0334,-0.0347,-0.0347,-0.0347,-0.0347,-0.0347,0,0.0237,0.0258,0.028,0.0307,0.0313,0.0349,0.0382,0.038,0.0414,0.0445,0.0476,0.0429,0.04,0.0217,0.0011,-0.0166,-0.0213,-0.0276,-0.0338,-0.0327,-0.0336,-0.0335,-0.0333,-0.0327,-0.0327,-0.0326,-0.0326,0,0.0289,0.0294,0.0317,0.0373,0.0408,0.0451,0.0496,0.0541,0.0558,0.0602,0.0645,0.0632,0.0467,0.0284,0.0046,-0.009,-0.0254,-0.0278,-0.0274,-0.0333,-0.0309,-0.0317,-0.0316,-0.0324,-0.0325,-0.0325,-0.0325,-0.0325,0.033,0.0356,0.0388,0.044,0.0482,0.0542,0.0594,0.0645,0.0716,0.0766,0.0759,0.0731,0.0542,0.0224,0.0022,-0.0212,-0.0218,-0.0322,-0.0323,-0.0324,-0.0324,-0.0301,-0.0313,-0.0314,-0.0314,-0.0314,-0.0314,0,0.0379,0.0409,0.0456,0.0509,0.0555,0.0575,0.0665,0.07,0.0787,0.0821,0.0846,0.0656,0.0482,0.0258,-0.0079,-0.0269,-0.0302,-0.0338,-0.0341,-0.0341,-0.0341,-0.0343,-0.0337,-0.0338,-0.0338,-0.0339,0,0,0.0408,0.0458,0.0475,0.0555,0.0599,0.0669,0.0725,0.0771,0.0804,0.0811,0.0793,0.0771,0.0527,0.0284,0.0033,-0.0156,-0.0212,-0.02,-0.0163,-0.0138,-0.0137,-0.0316,-0.0317,0,0,0,0,0]}],[{"header":{"parameterUnit":"m.s-1","parameterCategory":2,"la1":30.2991,"la2":30.254,"lo1":-89.0895,"lo2":-89.0444,"dy":0.0017,"dx":0.0017,"nx":28,"ny":28,"refTime":"2025-04-19T21:00:00:Z","depth":"4","parameterNumber":2,"parameterNumberName":"U-component_of_CURRENTS"},"data":[0,0,0,0,0,0,0,0,0,0,0,0,0,0,0,0,0,0,0,0,0,0,0,0,0,0,0,0,0,0,0,0,0,0,0,0,0,0,0,0,0,0,0,0,0,0,0,0,0,0,0,0,0,0,0,0,0,0,0.1181,0.1182,0,0.1215,0.1216,0.1216,0.1256,0.1257,0.1258,0.1259,0.1293,0.1294,0.1294,0,0,0,0,0,0,0,0,0,0,0,0,0,0.1131,0.1132,0.1181,0.1182,0.1182,0.1215,0.1216,0.1216,0.1256,0.1257,0.1258,0.1259,0.1293,0.1294,0.1294,0,0,0,0,0,0,0,0,0,0,0,0,0,0.1156,0.1132,0.1181,0.1208,0.1211,0.1215,0.1216,0.1216,0.1256,0.1257,0.1258,0.1259,0.1293,0.1294,0.1294,0.127,0,0,0.1295,0.1295,0,0,0,0,0,0,0,0,0.1154,0.1157,0.1204,0.1206,0.121,0.1235,0.1211,0.1235,0.1255,0.1236,0.1259,0.126,0.1274,0.1276,0.1277,0.1272,0.1274,0.1295,0.1295,0.1295,0.1295,0,0,0,0,0,0,0,0.1152,0.1156,0.1192,0.1204,0.1208,0.1212,0.1217,0.1215,0.1246,0.1238,0.1242,0.1249,0.1276,0.1276,0.1278,0.1274,0.1295,0.1295,0.1295,0.1295,0.1341,0.1342,0,0,0,0,0,0,0.1153,0.1154,0.1191,0.1194,0.1187,0.1212,0.1217,0.1224,0.1246,0.1252,0.1248,0.1251,0.1275,0.1278,0.1279,0.1335,0.1295,0.1295,0.1295,0.134,0.1341,0.1342,0,0,0,0,0,0,0.1151,0.1155,0.119,0.1177,0.1182,0.1212,0.1218,0.1224,0.1251,0.1254,0.1259,0.1273,0.1276,0.1279,0.1303,0.1334,0.1295,0.1295,0.1339,0.134,0.1342,0.1393,0,0,0,0,0,0,0.115,0.1155,0.1167,0.1177,0.1183,0.1207,0.1218,0.1223,0.1253,0.1257,0.1277,0.128,0.1278,0.1303,0.1304,0.1333,0.1295,0.1337,0.1339,0.1341,0.139,0.1397,0.1402,0,0,0,0,0,0.1148,0.1153,0.1167,0.1173,0.1196,0.1208,0.1211,0.1235,0.1253,0.1264,0.1284,0.1281,0.1317,0.1304,0.1304,0.1335,0.1336,0.1339,0.1341,0.1388,0.1395,0.1402,0,0,0,0,0,0,0.1137,0.1158,0.1174,0.1187,0.1206,0.1216,0.1231,0.1247,0.127,0.1284,0.1288,0.1292,0.1323,0.132,0.1306,0.1354,0.1328,0.1331,0.1364,0.1371,0.1376,0.1367,0.1296,0,0,0,0,0,0.114,0.1153,0.1173,0.1187,0.1198,0.122,0.1233,0.1251,0.1268,0.1281,0.1296,0.1314,0.1327,0.1344,0.1347,0.1372,0.1376,0.1394,0.1399,0.1404,0.1397,0.1445,0.1455,0.135,0.135,0.135,0,0,0.114,0.1155,0.1163,0.1186,0.1204,0.1222,0.1231,0.1257,0.1279,0.1279,0.1318,0.1329,0.1336,0.1365,0.138,0.1373,0.1436,0.1407,0.1412,0.1402,0.1449,0.1459,0.1468,0.1352,0.1352,0.1351,0,0,0.114,0.1162,0.1173,0.1192,0.1225,0.1237,0.1251,0.1278,0.13,0.133,0.1341,0.1373,0.1392,0.1408,0.1417,0.1456,0.1459,0.1465,0.1496,0.1543,0.1552,0.156,0.1578,0.1587,0.1477,0.1477,0.1477,0,0.1142,0.1159,0.1178,0.1196,0.1217,0.1247,0.1267,0.1288,0.1322,0.1339,0.1352,0.14,0.1411,0.1449,0.1468,0.147,0.1488,0.147,0.1552,0.1559,0.1567,0.1583,0.1592,0.148,0.1479,0.1479,0.1479,0,0.1147,0.1171,0.1181,0.1216,0.1237,0.126,0.1293,0.1322,0.1355,0.1375,0.1423,0.1446,0.1478,0.1494,0.1494,0.1554,0.1547,0.1548,0.1534,0.158,0.1594,0.1603,0.1484,0.1483,0.1482,0.1481,0,0,0.1123,0.1174,0.1181,0.1205,0.1253,0.1269,0.1309,0.1346,0.1379,0.142,0.1466,0.1501,0.1524,0.1535,0.1553,0.1597,0.1669,0.1602,0.1603,0.1619,0.1763,0.1668,0.1668,0.1696,0.1698,0.17,0.1752,0,0.1126,0.116,0.1187,0.1228,0.125,0.1292,0.1326,0.1366,0.1406,0.1457,0.1496,0.1545,0.1538,0.1577,0.1617,0.1652,0.1695,0.1653,0.1714,0.1715,0.1626,0.1676,0.1706,0.1758,0.176,0.1762,0.1763,0,0.1119,0.1146,0.1184,0.1241,0.1256,0.1289,0.1352,0.1389,0.1455,0.149,0.1543,0.1578,0.1641,0.1644,0.1721,0.1699,0.1734,0.176,0.1763,0.1658,0.1637,0.1703,0.1779,0.1777,0.1776,0.1775,0.1774,0,0.1086,0.1143,0.1175,0.1196,0.1262,0.1296,0.1339,0.1402,0.144,0.1528,0.1573,0.1633,0.1696,0.1738,0.179,0.177,0.1878,0.1854,0.1797,0.179,0.1836,0.1827,0.1921,0.1921,0.1921,0.1921,0.1921,0,0.1064,0.1093,0.117,0.1187,0.1234,0.1292,0.1349,0.1397,0.1479,0.1528,0.1599,0.1651,0.1733,0.1799,0.1818,0.1831,0.1903,0.1801,0.1802,0.1855,0.1848,0.1842,0.1832,0.1923,0.1922,0.1922,0.1922,0,0.1017,0.1066,0.1109,0.119,0.1219,0.1258,0.1354,0.1392,0.1479,0.1553,0.1592,0.1694,0.1769,0.1833,0.1918,0.1868,0.1891,0.1889,0.194,0.1943,0.1756,0.1749,0.1794,0.1791,0.1789,0.1787,0.1785,0,0.0992,0.1011,0.1103,0.1132,0.1174,0.1243,0.1286,0.1381,0.1422,0.1561,0.1589,0.1711,0.1767,0.1793,0.1867,0.1893,0.1885,0.1872,0.1798,0.1749,0.1747,0.1743,0.1738,0.1781,0.1781,0.178,0.1779,0,0.0946,0.099,0.1027,0.109,0.1144,0.1192,0.1266,0.1286,0.1398,0.1494,0.1548,0.1595,0.1686,0.173,0.1787,0.1799,0.1853,0.1846,0.185,0.178,0.1734,0.1733,0.1732,0.1771,0.1772,0.1773,0.1774,0,0.0917,0.0932,0.0992,0.1038,0.1102,0.1129,0.117,0.1224,0.1277,0.1421,0.144,0.1564,0.1669,0.1686,0.1729,0.1742,0.1702,0.163,0.1644,0.1654,0.1586,0.1506,0.1477,0,0,0,0,0,0.0886,0.0896,0.0934,0.098,0.104,0.1078,0.1153,0.1196,0.1303,0.1305,0.1365,0.1438,0.15,0.1564,0.1549,0.1673,0.1714,0.1648,0.1639,0.1726,0.1735,0.1669,0,0,0,0,0,0,0.0864,0.0898,0.0912,0.0927,0.0948,0.1003,0.1047,0.1113,0.1114,0.1227,0.1268,0.1355,0.144,0.1502,0.1525,0.1545,0.151,0.1725,0.1722,0.172,0.1729,0.1737,0.1672,0,0,0,0,0]},{"header":{"parameterUnit":"m.s-1","parameterCategory":2,"la1":30.2991,"la2":30.254,"lo1":-89.0895,"lo2":-89.0444,"dy":0.0017,"dx":0.0017,"nx":28,"ny":28,"refTime":"2025-04-19T21:00:00:Z","depth":"4","parameterNumber":3,"parameterNumberName":"V-component_of_CURRENTS"},"data":[0,0,0,0,0,0,0,0,0,0,0,0,0,0,0,0,0,0,0,0,0,0,0,0,0,0,0,0,0,0,0,0,0,0,0,0,0,0,0,0,0,0,0,0,0,0,0,0,0,0,0,0,0,0,0,0,0,0,-0.0075,-0.0075,0,-0.0099,-0.0099,-0.0099,-0.0128,-0.0129,-0.0129,-0.013,-0.0178,-0.0179,-0.018,0,0,0,0,0,0,0,0,0,0,0,0,0,-0.0072,-0.0072,-0.0075,-0.0075,-0.0075,-0.0099,-0.0099,-0.0099,-0.0128,-0.0129,-0.0129,-0.013,-0.0178,-0.0179,-0.018,0,0,0,0,0,0,0,0,0,0,0,0,0,-0.0082,-0.0072,-0.0074,-0.0092,-0.0094,-0.0099,-0.0099,-0.0099,-0.0128,-0.0129,-0.0129,-0.013,-0.0177,-0.0179,-0.018,-0.0174,0,0,-0.0184,-0.0184,0,0,0,0,0,0,0,0,-0.0082,-0.0083,-0.0089,-0.0091,-0.0093,-0.0111,-0.0116,-0.0126,-0.0128,-0.0115,-0.013,-0.013,-0.0157,-0.016,-0.0163,-0.0177,-0.0179,-0.0184,-0.0185,-0.0185,-0.0186,0,0,0,0,0,0,0,-0.0081,-0.0082,-0.0084,-0.009,-0.0092,-0.0106,-0.0108,-0.0118,-0.0133,-0.0116,-0.0118,-0.0121,-0.0159,-0.0162,-0.0164,-0.0179,-0.0184,-0.0185,-0.0186,-0.0186,-0.0182,-0.0181,0,0,0,0,0,0,-0.0076,-0.0081,-0.0083,-0.0085,-0.0089,-0.0105,-0.0107,-0.0105,-0.0132,-0.0137,-0.012,-0.0122,-0.0159,-0.0163,-0.0166,-0.0149,-0.0185,-0.0187,-0.0187,-0.0183,-0.0182,-0.0181,0,0,0,0,0,0,-0.0076,-0.0076,-0.0082,-0.0084,-0.0086,-0.0104,-0.0101,-0.0105,-0.0112,-0.0135,-0.014,-0.0124,-0.016,-0.0164,-0.0169,-0.0152,-0.0187,-0.0188,-0.0184,-0.0183,-0.0182,-0.0123,0,0,0,0,0,0,-0.0076,-0.0076,-0.0074,-0.0083,-0.0085,-0.0077,-0.0101,-0.0105,-0.0112,-0.0115,-0.014,-0.0145,-0.0161,-0.0167,-0.017,-0.0155,-0.0189,-0.0185,-0.0184,-0.0182,-0.0127,-0.012,-0.0115,0,0,0,0,0,-0.0075,-0.0062,-0.0073,-0.0074,-0.0081,-0.0076,-0.0078,-0.0095,-0.0111,-0.0105,-0.0123,-0.0144,-0.0159,-0.0167,-0.0171,-0.0156,-0.0186,-0.0184,-0.0182,-0.0129,-0.0122,-0.0115,0,0,0,0,0,0,-0.0058,-0.0064,-0.0077,-0.0066,-0.0071,-0.0081,-0.0079,-0.0093,-0.0102,-0.0108,-0.0134,-0.0139,-0.0137,-0.0153,-0.0162,-0.0149,-0.0175,-0.0174,-0.0133,-0.0127,-0.0121,-0.0106,-0.019,0,0,0,0,0,-0.0054,-0.0048,-0.0057,-0.0049,-0.005,-0.0067,-0.0069,-0.0079,-0.0088,-0.0094,-0.0111,-0.0126,-0.013,-0.0135,-0.0143,-0.0137,-0.0164,-0.0129,-0.0124,-0.0119,-0.0109,-0.0135,-0.0131,-0.0175,-0.0175,-0.0175,0,0,-0.0046,-0.0049,-0.0046,-0.0045,-0.0052,-0.0041,-0.0069,-0.0067,-0.0057,-0.0097,-0.009,-0.0108,-0.0124,-0.0115,-0.0115,-0.0128,-0.0121,-0.0116,-0.0112,-0.0104,-0.0133,-0.0128,-0.0125,-0.0173,-0.0173,-0.0174,0,0,-0.0018,-0.0028,-0.0012,-0.0011,-0.0016,-0.0023,-0.0021,-0.0031,-0.0036,-0.0032,-0.0055,-0.006,-0.0074,-0.0075,-0.0079,-0.0047,-0.0091,-0.0053,-0.0011,-0.0036,-0.0033,-0.0031,-0.0065,-0.0066,-0.0049,-0.0049,-0.0048,0,-0.0009,0.0007,-0.0006,0.0011,0.0013,-0.0012,0.0007,0.0006,-0.0004,-0.0,-0.0023,-0.0032,-0.005,-0.0031,-0.0019,-0.0033,-0.0061,-0.0036,-0.0029,-0.0027,-0.0026,-0.0062,-0.0064,-0.0045,-0.0046,-0.0046,-0.0046,0,0.0031,0.0042,0.0053,0.0064,0.0068,0.008,0.0075,0.0079,0.0064,0.006,0.0065,0.0041,0.0034,0.0031,0.0016,0.0028,-0.0002,-0.0021,-0.0047,-0.0018,-0.0058,-0.0061,-0.0041,-0.0042,-0.0043,-0.0044,0,0,0.0059,0.0077,0.008,0.0089,0.0095,0.0102,0.0126,0.0139,0.015,0.0139,0.0148,0.0147,0.0123,0.0118,0.0094,0.0079,0.0061,0.0038,0.0035,0.0003,-0.0007,-0.0021,-0.0027,0.0037,0.0038,0.0038,-0.0042,0,0.0091,0.0129,0.0131,0.0164,0.0179,0.0171,0.0195,0.0204,0.0196,0.02,0.0184,0.018,0.016,0.0146,0.0133,0.0077,0.0057,0.0084,-0.0029,-0.0032,-0.005,-0.0029,0.0038,-0.0044,-0.0045,-0.0046,-0.0046,0,0.0127,0.0146,0.0184,0.0207,0.0214,0.0232,0.0252,0.0269,0.0276,0.0269,0.0265,0.0238,0.0227,0.019,0.0126,0.014,0.0077,0.0031,0.0027,-0.0007,-0.0052,-0.0079,-0.0052,-0.0052,-0.0051,-0.0051,-0.005,0,0.0143,0.018,0.0209,0.0217,0.0245,0.0262,0.0276,0.029,0.0308,0.0304,0.0302,0.0282,0.0255,0.0195,0.0106,0.0108,0.0015,-0.0,-0.0069,-0.0072,-0.0063,-0.0065,-0.0049,-0.0049,-0.0049,-0.0049,-0.0048,0,0.0171,0.0193,0.0218,0.0234,0.0271,0.0281,0.0315,0.0325,0.034,0.0362,0.0333,0.0331,0.0253,0.0191,0.0114,0.0014,0.0017,-0.0055,-0.0087,-0.0038,-0.0035,-0.0066,-0.0067,-0.0052,-0.0051,-0.005,-0.005,0,0.0179,0.0198,0.0231,0.0265,0.0279,0.03,0.034,0.0364,0.0373,0.0394,0.0392,0.0359,0.0283,0.0195,0.0079,0.0017,-0.0077,-0.0118,-0.0063,-0.0092,-0.015,-0.0147,-0.0194,-0.0195,-0.0195,-0.0196,-0.0197,0,0.0187,0.0206,0.0247,0.0268,0.0283,0.0319,0.0349,0.0377,0.04,0.0413,0.0421,0.0361,0.0325,0.0159,0.0061,-0.0089,-0.0111,-0.017,-0.0142,-0.0135,-0.0162,-0.0158,-0.0153,-0.0198,-0.0198,-0.0199,-0.0199,0,0.0196,0.0208,0.0232,0.0276,0.0309,0.035,0.0389,0.0413,0.0445,0.0455,0.0443,0.0369,0.028,0.0163,0.0037,-0.0067,-0.0131,-0.0179,-0.0178,-0.0152,-0.0142,-0.0166,-0.0161,-0.0202,-0.0202,-0.0201,-0.0201,0,0.0195,0.0208,0.0239,0.0276,0.0322,0.0363,0.0389,0.042,0.0446,0.0466,0.0458,0.0375,0.033,0.0172,0.0062,-0.0046,-0.0067,-0.0104,-0.0107,-0.0105,-0.0053,-0.0024,-0.0069,0,0,0,0,0,0.0188,0.02,0.0237,0.0277,0.0325,0.0348,0.041,0.0435,0.047,0.0467,0.0467,0.039,0.0242,0.018,0.0071,0.0035,-0.0098,-0.0098,-0.0145,-0.0219,-0.0215,-0.0169,0,0,0,0,0,0,0.018,0.0207,0.0227,0.0272,0.0297,0.0349,0.0386,0.0414,0.0417,0.0439,0.0367,0.0345,0.0202,0.0297,0.0061,0.003,-0.0018,-0.0161,-0.0164,-0.0221,-0.0218,-0.0215,-0.0166,0,0,0,0,0]}]]